カタログに戻る

SCOUT B-1 R/B

運用中PO
NORAD 6180·ROCKET BODY·🇺🇸 United States

打ち上げ Sep 2, 1972 から Vandenberg Space Force Base

Loading…

次のパス (今後24時間)

TLE

最新Source: Space-Track

元期: Sep 14, 2026, 07:47 UTC

1 06180U 72069B   26257.32498313  .00001309  00000-0  18723-3 0  9991
2 06180  90.0747 221.2996 0032748 185.9714 174.1122 14.75827114840846

AllMySatでSCOUT B-1 R/Bをリアルタイム追跡

Download on the App Store